Weather History for KSMQ - June, 2013

Change the Weather History Date:

Monday, June 10, 2013

  Actual Average Record
Temperature  
Mean Temperature 66 °F -  
Max Temperature 70 °F 80 °F 96 °F (2008)
Min Temperature 62 °F 55 °F 39 °F (1957)
Cooling Degree Days 1    
Growing Degree Days 16 (Base 50)    
Moisture  
Dew Point 65 °F    
Average Humidity 93    
Maximum Humidity 100    
Minimum Humidity 83    
Precipitation  
Precipitation 1.17 in - - ()
Sea Level Pressure  
Sea Level Pressure 29.98 in    
Wind  
Wind Speed 2 mph (East)    
Max Wind Speed 8 mph    
Max Gust Speed -    
Visibility 6 miles    
Events Fog , Rain    
Averages and records for this station are not official NWS values.
T = Trace of Precipitation, MM = Missing Value Source: NWS Daily Summary

Daily Weather History Graph

Daily Weather History Graph

Search for Another Location

Airport or City:

Trip Planner

Search our weather history database for the weather conditions in past years. The results will help you decide how hot, cold, wet, or windy it might be!

Date:

Astronomy

Jun. 10, 2013 Rise Set
Actual Time 5:27 AM EDT 8:29 PM EDT
Civil Twilight 4:54 AM EDT 9:02 PM EDT
Nautical Twilight 4:12 AM EDT 9:44 PM EDT
Astronomical Twilight 3:22 AM EDT 10:33 PM EDT
Moon 7:14 AM EDT (6/10) 9:53 PM EDT (6/10)
Length of Visible Light 16h 08m
Length of Day
15h 01m
Waxing Crescent, 4% of the Moon is Illuminated
Jun 10
Waxing Crescent
Jun 16
First Quarter
Jun 23
Full
Jun 30
Last Quarter
Jul 8
New

Hourly Weather History & Observations

Time (EDT) Temp. Dew Point Humidity Pressure Visibility Wind Dir Wind Speed Gust Speed Precip Events Conditions
12:53 AM 62.1 °F 61.0 °F 96% 30.14 in 7.0 mi Calm Calm - N/A   Scattered Clouds
1:53 AM 63.0 °F 61.0 °F 93% 30.14 in 5.0 mi Calm Calm - N/A   Overcast
2:53 AM 64.0 °F 61.0 °F 90% 30.12 in 8.0 mi Calm Calm - N/A   Mostly Cloudy
3:53 AM 63.0 °F 61.0 °F 93% 30.12 in 6.0 mi Calm Calm - N/A   Scattered Clouds
4:53 AM 63.0 °F 61.0 °F 93% 30.11 in 5.0 mi Calm Calm - N/A   Mostly Cloudy
5:53 AM 63.0 °F 61.0 °F 93% 30.11 in 6.0 mi NW 3.5 mph - N/A   Clear
6:53 AM 64.0 °F 62.1 °F 93% 30.11 in 5.0 mi Calm Calm - N/A   Scattered Clouds
7:53 AM 66.0 °F 63.0 °F 90% 30.11 in 6.0 mi Calm Calm - 0.01 in Rain Light Rain
8:53 AM 68.0 °F 64.9 °F 90% 30.09 in 5.0 mi ENE 3.5 mph - 0.03 in Rain Light Rain
9:08 AM 66.2 °F 64.4 °F 94% 30.10 in 3.0 mi NE 4.6 mph - 0.02 in Rain Rain
9:19 AM 66.2 °F 64.4 °F 94% 30.11 in 1.5 mi WSW 4.6 mph - 0.07 in Rain Rain
9:29 AM 66.2 °F 64.4 °F 94% 30.10 in 0.5 mi Calm Calm - 0.19 in Fog , Rain Heavy Rain
9:48 AM 66.2 °F 66.2 °F 100% 30.10 in 1.2 mi NE 4.6 mph - 0.30 in Rain Rain
9:53 AM 66.9 °F 64.9 °F 93% 30.09 in 1.5 mi NE 3.5 mph - 0.31 in Rain Light Rain
9:58 AM 66.2 °F 66.2 °F 100% 30.09 in 2.0 mi Variable 4.6 mph - 0.00 in Rain Light Rain
10:19 AM 68.0 °F 66.2 °F 94% 30.08 in 4.0 mi Variable 3.5 mph - 0.01 in Rain Light Rain
10:53 AM 69.1 °F 66.0 °F 90% 30.07 in 8.0 mi Variable 5.8 mph - 0.01 in   Overcast
11:11 AM 68.0 °F 64.4 °F 88% 30.07 in 10.0 mi East 4.6 mph - N/A   Overcast
11:53 AM 69.1 °F 64.9 °F 87% 30.06 in 10.0 mi East 4.6 mph - N/A   Overcast
12:18 PM 69.8 °F 64.4 °F 83% 30.05 in 10.0 mi Variable 4.6 mph - N/A   Overcast
12:53 PM 68.0 °F 64.9 °F 90% 30.04 in 10.0 mi Calm Calm - N/A   Overcast
1:53 PM 66.9 °F 64.9 °F 93% 30.01 in 9.0 mi ESE 4.6 mph - 0.00 in Rain Light Rain
2:53 PM 66.0 °F 64.0 °F 93% 29.98 in 2.5 mi Variable 4.6 mph - 0.13 in Rain Light Rain
3:06 PM 66.2 °F 64.4 °F 94% 29.98 in 2.5 mi Variable 3.5 mph - 0.04 in Rain Rain
3:33 PM 66.2 °F 64.4 °F 94% 29.97 in 3.0 mi East 8.1 mph - 0.12 in Rain Light Rain
3:53 PM 66.0 °F 64.9 °F 96% 29.96 in 7.0 mi Calm Calm - 0.13 in Rain Light Rain
4:12 PM 66.2 °F 64.4 °F 94% 29.95 in 10.0 mi Variable 4.6 mph - 0.00 in Rain Light Rain
4:28 PM 66.2 °F 64.4 °F 94% 29.94 in 1.8 mi Calm Calm - 0.08 in Rain Heavy Rain
4:35 PM 66.2 °F 64.4 °F 94% 29.94 in 3.0 mi Variable 4.6 mph - 0.09 in Rain Light Rain
4:53 PM 64.9 °F 64.0 °F 97% 29.94 in 4.0 mi Calm Calm - 0.12 in Rain Light Rain
5:48 PM 64.4 °F 62.6 °F 94% 29.91 in 6.0 mi Variable 3.5 mph - 0.08 in Rain Light Rain
5:53 PM 64.9 °F 63.0 °F 93% 29.91 in 8.0 mi Calm Calm - 0.08 in Rain Light Rain
6:53 PM 66.0 °F 64.0 °F 93% 29.89 in 4.0 mi East 5.8 mph - 0.11 in Rain Light Rain
7:03 PM 66.2 °F 64.4 °F 94% 29.88 in 2.0 mi Variable 3.5 mph - 0.04 in Rain Rain
7:11 PM 66.2 °F 64.4 °F 94% 29.88 in 2.5 mi Calm Calm - 0.07 in Rain Rain
7:15 PM 66.2 °F 64.4 °F 94% 29.87 in 3.0 mi Calm Calm - 0.08 in Rain Light Rain
7:23 PM 66.2 °F 64.4 °F 94% 29.87 in 2.5 mi East 3.5 mph - 0.11 in Rain Rain
7:53 PM 66.9 °F 64.9 °F 93% 29.86 in 4.0 mi Calm Calm - 0.21 in Rain Light Rain
8:53 PM 68.0 °F 66.9 °F 96% 29.82 in 10.0 mi East 3.5 mph - 0.03 in   Overcast
9:07 PM 68.0 °F 66.2 °F 94% 29.83 in 10.0 mi Calm Calm - N/A   Overcast
9:17 PM 69.8 °F 68.0 °F 94% 29.83 in 10.0 mi Calm Calm - N/A   Overcast
9:53 PM 70.0 °F 69.1 °F 97% 29.83 in 10.0 mi SE 6.9 mph - N/A   Overcast
10:21 PM 69.8 °F 68.0 °F 94% 29.83 in 10.0 mi SE 8.1 mph - N/A   Overcast
10:37 PM 69.8 °F 68.0 °F 94% 29.82 in 9.0 mi Variable 3.5 mph - N/A   Overcast
10:53 PM 70.0 °F 69.1 °F 97% 29.81 in 10.0 mi Variable 3.5 mph - 0.00 in Rain Light Rain
11:46 PM 69.8 °F 68.0 °F 94% 29.78 in 9.0 mi SSE 3.5 mph - 0.00 in Rain Light Rain
11:53 PM 70.0 °F 68.0 °F 93% 29.78 in 9.0 mi Variable 4.6 mph - 0.00 in   Overcast